Weather History for KLWM - April, 2014

Change the Weather History Date:

Monday, April 7, 2014

  Actual Average Record
Temperature  
Mean Temperature 47 °F -  
Max Temperature 61 °F 52 °F 83 °F (1929)
Min Temperature 34 °F 34 °F 15 °F (1982)
Degree Days  
Heating Degree Days 18    
Moisture  
Dew Point 23 °F    
Average Humidity 43    
Maximum Humidity 86    
Minimum Humidity 19    
Precipitation  
Precipitation 0.01 in - - ()
Sea Level Pressure  
Sea Level Pressure 30.16 in    
Wind  
Wind Speed 3 mph (SSE)    
Max Wind Speed 9 mph    
Max Gust Speed -    
Visibility 10 miles    
Events Rain    
Averages and records for this station are not official NWS values.
T = Trace of Precipitation, MM = Missing Value Source: NWS Daily Summary

Daily Weather History Graph

Daily Weather History Graph

Search for Another Location

Airport or City:

Trip Planner

Search our weather history database for the weather conditions in past years. The results will help you decide how hot, cold, wet, or windy it might be!

Date:

Astronomy

Apr. 07, 2014 Rise Set
Actual Time 6:16 AM EDT 7:17 PM EDT
Civil Twilight 5:47 AM EDT 7:46 PM EDT
Nautical Twilight 5:13 AM EDT 8:20 PM EDT
Astronomical Twilight 4:37 AM EDT 8:56 PM EDT
Moon 12:05 PM EDT (4/7) 1:56 AM EDT (4/7)
Length of Visible Light 13h 58m
Length of Day
13h 01m
First Quarter, 53% of the Moon is Illuminated
Apr 7
First Quarter
Apr 15
Full
Apr 22
Last Quarter
Apr 29
New
May 6
First Quarter

Hourly Weather History & Observations

Time (EDT) Temp. Windchill Dew Point Humidity Pressure Visibility Wind Dir Wind Speed Gust Speed Precip Events Conditions
12:54 AM 41.0 °F - 21.9 °F 47% 30.19 in 10.0 mi Calm Calm - N/A   Clear
1:54 AM 37.9 °F - 23.0 °F 55% 30.19 in 10.0 mi Calm Calm - N/A   Clear
2:54 AM 35.1 °F 31.0 °F 24.1 °F 64% 30.19 in 10.0 mi SSW 4.6 mph - N/A   Clear
3:54 AM 36.0 °F - 25.0 °F 64% 30.20 in 10.0 mi Calm Calm - N/A   Clear
4:54 AM 36.0 °F - 24.1 °F 62% 30.21 in 10.0 mi Calm Calm - N/A   Clear
5:54 AM 34.0 °F - 24.1 °F 67% 30.22 in 10.0 mi Calm Calm - N/A   Clear
6:54 AM 34.0 °F 31.0 °F 26.1 °F 73% 30.23 in 10.0 mi SSW 3.5 mph - N/A   Clear
7:54 AM 39.9 °F - 28.0 °F 63% 30.23 in 10.0 mi Calm Calm - N/A   Clear
8:54 AM 46.9 °F - 27.0 °F 46% 30.25 in 10.0 mi SW 3.5 mph - N/A   Clear
9:54 AM 52.0 °F - 25.0 °F 35% 30.25 in 10.0 mi Calm Calm - N/A   Clear
10:54 AM 55.9 °F - 21.9 °F 27% 30.23 in 10.0 mi Variable 4.6 mph - N/A   Clear
11:54 AM 57.9 °F - 21.0 °F 24% 30.22 in 10.0 mi Variable 3.5 mph - N/A   Clear
12:54 PM 59.0 °F - 21.0 °F 23% 30.21 in 10.0 mi Variable 5.8 mph - N/A   Clear
1:54 PM 60.1 °F - 21.9 °F 23% 30.18 in 10.0 mi South 4.6 mph - N/A   Clear
2:54 PM 60.1 °F - 21.9 °F 23% 30.14 in 10.0 mi ESE 8.1 mph - N/A   Clear
3:54 PM 59.0 °F - 24.8 °F 27% 30.11 in 10.0 mi Variable 5.8 mph - N/A   Clear
4:54 PM 57.0 °F - 16.0 °F 20% 30.12 in 10.0 mi Variable 4.6 mph - N/A   Clear
5:54 PM 55.0 °F - 12.9 °F 19% 30.11 in 10.0 mi South 5.8 mph - N/A   Overcast
6:54 PM 53.1 °F - 14.0 °F 21% 30.11 in 10.0 mi SE 5.8 mph - N/A   Overcast
7:54 PM 51.1 °F - 15.1 °F 24% 30.09 in 10.0 mi Variable 4.6 mph - N/A   Mostly Cloudy
8:54 PM 48.9 °F - 26.1 °F 41% 30.06 in 10.0 mi ESE 8.1 mph - 0.00 in Rain Light Rain
9:54 PM 46.9 °F - 21.0 °F 36% 30.04 in 10.0 mi ESE 9.2 mph - 0.00 in   Overcast
10:54 PM 44.1 °F 39.5 °F 35.1 °F 71% 30.00 in 10.0 mi ESE 8.1 mph - 0.00 in Rain Light Rain
11:54 PM 43.0 °F 38.2 °F 39.0 °F 86% 29.95 in 5.0 mi East 8.1 mph - 0.01 in Rain Light Rain